EST,Max TemperatureF,Mean TemperatureF,Min TemperatureF,Max Dew PointF,MeanDew PointF,Min DewpointF,Max Humidity, Mean Humidity, Min Humidity, Max Sea Level PressureIn, Mean Sea Level PressureIn, Min Sea Level PressureIn, Max VisibilityMiles, Mean VisibilityMiles, Min VisibilityMiles, Max Wind SpeedMPH, Mean Wind SpeedMPH, Max Gust SpeedMPH,PrecipitationIn, CloudCover, Events, WindDirDegrees
2013-1-1,28,19,10,27,20,9,93,82,69,30.17,30.12,30.06,10,10,7,9,5,,0.00,4,,306
2013-1-2,21,12,3,9,5,0,92,75,54,30.26,30.20,30.16,10,10,10,8,6,,0.00,0,,218
2013-1-3,30,22,14,27,16,7,86,77,68,30.28,30.21,30.16,10,10,7,23,11,26,0.00,5,,239
2013-1-4,28,20,12,23,16,9,93,81,68,30.31,30.27,30.24,10,10,10,20,12,24,0.00,0,,233
2013-1-5,33,25,17,30,23,14,93,85,69,30.30,30.21,30.07,10,9,3,15,10,22,0.00,3,Snow,206
2013-1-6,33,28,23,30,26,19,93,84,74,30.34,30.12,29.97,10,10,7,18,13,25,0.00,8,,250
2013-1-7,33,24,14,27,21,12,100,86,75,30.41,30.32,30.17,10,8,4,17,8,22,0.00,0,,198
2013-1-8,39,31,23,30,25,19,93,83,70,30.25,30.20,30.14,10,9,5,14,8,,0.00,0,,185
2013-1-9,44,37,30,36,31,23,93,77,66,30.51,30.30,30.11,10,10,10,16,11,20,0.00,2,,241
2013-1-10,39,32,26,37,30,23,100,85,70,30.53,30.33,30.03,10,8,2,16,7,21,0.35,3,Snow,100
2013-1-11,55,47,39,52,46,37,100,88,72,30.02,29.85,29.75,10,9,2,22,12,26,0.33,5,Rain,184
2013-1-12,59,52,42,52,47,41,100,85,72,29.96,29.89,29.76,10,9,3,16,11,24,0.43,2,Rain,225
2013-1-13,41,31,19,39,30,16,100,93,86,30.22,29.96,29.75,10,6,1,18,13,26,0.42,8,Snow,315
2013-1-14,21,18,14,18,14,10,93,82,73,30.47,30.39,30.23,10,9,5,16,6,18,0.00,4,Snow,314
2013-1-15,30,22,14,21,18,12,93,80,64,30.41,30.32,30.12,10,9,5,12,4,,0.00,2,,44
2013-1-16,35,28,21,27,23,19,100,82,60,30.11,30.02,29.93,10,8,4,18,5,25,0.00,3,,242
2013-1-17,35,27,19,28,22,14,93,75,55,30.40,30.23,30.06,10,10,7,16,7,21,0.00,1,,308
2013-1-18,37,28,19,27,21,14,93,73,52,30.46,30.31,30.07,10,10,10,26,11,34,0.00,0,,209
2013-1-19,48,40,33,34,30,27,81,68,54,30.07,29.94,29.82,10,10,10,26,19,32,0.00,0,,223
2013-1-20,39,29,19,32,11,7,75,58,47,30.27,30.17,29.87,10,10,10,29,16,38,0.00,2,,288
2013-1-21,19,14,8,10,3,-6,86,61,41,30.26,30.17,30.12,10,9,1,23,13,34,0.00,5,Snow,278
2013-1-22,14,8,3,0,-2,-4,85,62,45,30.38,30.32,30.26,10,10,10,16,11,22,0.00,2,,278
2013-1-23,23,16,10,10,4,0,68,59,49,30.34,30.23,30.10,10,10,7,22,8,29,0.00,7,Snow,255
2013-1-24,23,16,10,14,8,1,92,66,39,30.60,30.47,30.19,10,10,1,14,8,21,0.00,2,Snow,51
2013-1-25,28,22,19,21,16,9,93,77,58,30.40,30.13,30.02,10,9,1,13,10,21,0.01,7,Snow,188
2013-1-26,28,22,15,18,15,10,86,72,55,30.43,30.31,30.09,10,10,10,10,6,16,0.00,4,Snow,321
2013-1-27,33,26,19,32,23,14,100,84,69,30.42,30.28,30.05,10,8,2,14,8,,0.12,4,Snow,129
2013-1-28,48,40,33,46,43,34,100,97,93,30.04,29.96,29.93,7,2,0,17,12,24,0.04,8,Fog-Rain,203
2013-1-29,59,52,46,55,53,46,100,94,82,29.94,29.73,29.36,10,6,0,25,15,32,0.51,8,Fog-Rain,185
2013-1-30,60,44,26,55,41,23,100,93,80,29.58,29.37,29.24,10,8,1,32,15,44,0.67,8,Rain-Snow,235
2013-1-31,26,18,10,21,13,1,86,74,58,30.11,29.85,29.59,10,8,2,30,22,40,0.00,8,Snow,274